Location: Newark
(34.1333°N, 7.9667°W)
Time: 13:36:24
(UTC+00:00)

S-56A Canister/Altair - Pass Details

Date: 09 December 2021
Orbit: 634 x 2499 km, 38.9° (Epoch: 25 January)

Event Time Altitude Azimuth Distance (km) Brightness Sun altitude
Rises 19:39:01 0° 204° (SSW) 6,163 12.6 -27.5°
Reaches altitude 10° 19:43:46 10° 196° (SSW) 5,131 12.0 -28.5°
Maximum altitude 19:55:55 32° 140° (SE) 3,308 10.4 -31.0°
Enters shadow 19:57:03 32° 132° (SE) 3,280 10.3 -31.2°
